Regional Weather Roundup
Issued by NWS

Home | Current Version | Previous Version | Graphics & Text | Print | Product List | Glossary Off
Versions: 1 2 3 4 5 6 7 8 9 10 11 12 13 14 15 16 17 18 19 20 21 22 23 24 25 26 27 28 29 30 31 32 33 34 35 36 37 38 39 40 41 42 43 44 45 46 47 48 49 50

000
ASUS43 KTOP 241408
RWRKS

WEATHER ROUNDUP FOR KANSAS
NATIONAL WEATHER SERVICE GOODLAND KS
900 AM CDT WED AUG 24 2016

NOTE:  "FAIR" INDICATES FEW OR NO CLOUDS BELOW 12,000 FEET WITH NO
SIGNIFICANT WEATHER AND/OR OBSTRUCTIONS TO VISIBILITY.

KSZ001>006-013>018-027>032-041>047-241500-
NORTHWEST KANSAS

CITY           SKY/WX    TMP DP  RH WIND       PRES   REMARKS
GOODLAND       CLOUDY    64  47  53 N7        30.12R
HAYS           PTSUNNY   72  54  53 N10       30.00R
HILL CITY      CLOUDY    68  54  60 N18G26    29.98F
RUSSELL        CLOUDY    72  61  68 NW7       29.97R
$$

KSZ061>065-074>080-084>089-241500-
SOUTHWEST KANSAS

CITY           SKY/WX    TMP DP  RH WIND       PRES   REMARKS
DODGE CITY     CLOUDY    74  61  63 W14       29.99R
ELKHART          N/A     66  52  61 W1          N/A
GARDEN CITY    PTSUNNY   68  60  75 SW13      30.01R
GREAT BEND     PTSUNNY   73  61  64 S14       29.98R
LIBERAL        CLOUDY    72  64  78 SW13      30.03F
PRATT          TSTM      69  61  75 SE12      30.02R
$$

KSZ066>073-081>083-090>101-241500-
SOUTHEAST KANSAS

CITY           SKY/WX    TMP DP  RH WIND       PRES   REMARKS
CHANUTE        MOSUNNY   79  71  76 S14G23    30.01R
COFFEYVILLE    SUNNY     80  71  74 S13       30.02R
HUTCHINSON     TSTM      74  66  76 SW10      30.00R
MEDICINE LODGE   N/A     72  67  84 CALM      29.99R
NEWTON         CLOUDY    73  69  87 S13       30.00R
PARSONS        CLOUDY    79  72  79 S8        30.03R
WICHITA INTL   LGT RAIN  75  68  78 S6        30.00R
WICHITA JABRA  CLOUDY    76  67  73 SW9       30.00R
WICHITA MCCONL DRIZZLE   75  67  76 SW15      30.00R
WINFIELD       MOSUNNY   78  69  73 S10       30.02R
$$

KSZ007>012-019>026-033>040-048>060-102>105-241500-
NORTHEAST KANSAS

CITY           SKY/WX    TMP DP  RH WIND       PRES   REMARKS
CONCORDIA      MOSUNNY   73  67  81 SE7       29.96R
EMPORIA        PTSUNNY   76  72  87 SE7       29.99F
LAWRENCE       CLOUDY    78  71  79 S14G22    29.96S
MANHATTAN      PTSUNNY   78  69  73 SW18      29.92R
MARYSVILLE     SUNNY     72  66  83 SE6       29.97R
OLATHE IND     LGT RAIN  74  71  91 S14       30.00R
OLATHE EXE     LGT RAIN  73  70  90 S10       29.99R
SALINA         MOSUNNY   79  64  60 S15G24    29.96R
TOPEKA BILLARD CLOUDY    78  71  79 S12       29.95R
TOPEKA FORBES  CLOUDY    80  71  74 S13       29.95R
$$



USA.gov is the U.S. government's official web portal to all federal, state and local government web resources and services.